Regional Weather Roundup
Issued by NWS

Home | Current Version | Previous Version | Text Only | Print | Product List | Glossary Off
Versions: 1 2 3 4 5 6 7 8 9 10 11 12 13 14 15 16 17 18 19 20 21 22 23 24 25 26 27 28 29 30

000
ASUS45 KGTF 170610
RWRMT
MONTANA HOURLY WEATHER ROUNDUP
NATIONAL WEATHER SERVICE GREAT FALLS MT
1200 AM MDT FRI APR 17 2015

NOTE: "FAIR" INDICATES FEW OR NO CLOUDS BELOW 12000 FEET WITH NO
SIGNIFICANT WEATHER AND/OR OBSTRUCTIONS TO VISIBILITY.

MTZ001>007-043-170700-
WEST OF THE DIVIDE

CITY           SKY/WX    TMP DP  RH WIND       PRES   REMARKS
KALISPELL      CLEAR     35  29  78 E3        30.20R
MISSOULA       CLEAR     41  27  57 N6        30.22R
BUTTE          CLEAR     32  24  72 SE6       30.25R WCI  26
DEER LODGE       N/A     34  21  60 CALM      30.27R
EUREKA           N/A     43  30  61 CALM      30.21R
HAMILTON         N/A     41  28  60 S7        30.22R
LIBBY            N/A     43  28  56 SE3       30.23R
$$

MTZ008-052>055-170700-
SOUTHWEST MONTANA

CITY           SKY/WX    TMP DP  RH WIND       PRES   REMARKS
BOZEMAN        CLEAR     32  27  81 SE6       30.24S WCI  26
DILLON         CLEAR     36  26  67 E3        30.23R
$$

MTZ009-010-012-014-046-048-049-054-170700-
EAST SLOPES AND CENTRAL MONTANA

CITY           SKY/WX    TMP DP  RH WIND       PRES   REMARKS
CUT BANK       CLEAR     41  26  55 W10       30.15R
GREAT FALLS    CLEAR     43  25  49 SW13      30.15R
MALMSTROM AFB  CLEAR     45  26  48 SW9       30.15R
HELENA         CLEAR     42  24  49 SW5       30.21R
$$

MTZ011-013-016-021-045-047-050-051-170700-
NORTH CENTRAL MONTANA

CITY           SKY/WX    TMP DP  RH WIND       PRES   REMARKS
HAVRE          MOCLDY    42  29  59 SW5       30.11S
LEWISTOWN      CLEAR     35  27  72 SE7       30.17S WCI  29
FORT BENTON      N/A     43  27  52 SW3       30.15R
$$

MTZ017>020-022>042-056>058-061-062-170700-
EASTERN PLAINS

CITY           SKY/WX    TMP DP  RH WIND       PRES   REMARKS
BAKER          CLEAR     36  25  64 CALM      30.22S
BILLINGS       CLEAR     42  30  62 SW8       30.22S
GLASGOW        PTCLDY    42  20  41 SE10      30.14F
JORDAN           N/A     42  22  44 SW10      30.17F
LIVINGSTON     CLEAR     32  24  72 NW5       30.23S
MILES CITY     CLEAR     39  18  42 S6        30.20S
SIDNEY         CLEAR     36  19  51 CALM      30.18S
WOLF POINT     PTCLDY    34  22  61 W5        30.16S
BIG TIMBER       N/A     37  27  65 SW5       30.23S
FORSYTH          N/A     46  30  53 SW3       30.21S
PLENTYWOOD       N/A     45  18  33 W8        30.14S
POPLAR           N/A     41  19  42 CALM      30.17S
$$

REGIONAL REPORTS...DAKOTAS

CITY           SKY/WX    TMP DP  RH WIND       PRES   REMARKS
WILLISTON      CLEAR     37  19  48 CALM      30.16S
MINOT          FAIR      41  22  46 SW10      30.14F
DICKINSON      CLEAR     33  22  63 S6        30.18S WCI  28
BEACH          FAIR      36  19  51 W3        30.21S
CROSBY         FAIR      41  25  52 SW10      30.14S
WATFORD CITY   FAIR      34  19  55 SW3       30.16S
BISMARCK       CLEAR     40  22  48 CALM      30.19S
GRAND FORKS    FAIR      32  21  64 W3        30.13R
FARGO          FAIR      44  28  53 NW7       30.13R
BUFFALO SD       N/A     41  22  46 NW5       30.16R
RAPID CITY     PTCLDY    45  32  60 N10       30.21F
$$

REGIONAL REPORTS...WYOMING/IDAHO/WASHINGTON

CITY           SKY/WX    TMP DP  RH WIND       PRES   REMARKS
GILLETTE       CLEAR     30  26  85 NW3       30.23F
SHERIDAN       PTCLDY    32  27  81 S6        30.25S WCI  26
BUFFALO WY     CLEAR     35  25  66 W6        30.25S WCI  30
CODY           CLEAR     36  28  75 SW10      30.25F WCI  28
YELLOWSTONE LA   N/A     25  20  81 CALM      30.28R
IDAHO FALLS    CLEAR     41  23  48 N9        30.17S
SALMON         CLEAR     36  21  55 CALM      30.20R
BOISE          CLEAR     46  29  51 SE7       30.16R
SPOKANE        CLEAR     45  33  63 SW7       30.22S
$$

REGIONAL REPORTS...ALBERTA

CITY           SKY/WX    TMP DP  RH WIND       PRES   REMARKS
EDMONTON       MOCLDY    39  30  70 NW3       30.14S
CALGARY        CLEAR     46  23  39 N9        30.15R
LETHBRIDGE     CLEAR     46  28  49 W21       30.13R
MEDICINE HAT   CLEAR     46  30  53 S8        30.07R
$$

REGIONAL REPORTS...SASKATCHEWAN

CITY           SKY/WX    TMP DP  RH WIND       PRES   REMARKS
SWIFT CURRENT  CLEAR     45  25  45 SW15      30.06R
REGINA         MOCLDY    45  28  53 SW13      30.05S
SASKATOON      CLEAR     37  27  65 SW9       30.00R WCI  31
$$



USA.gov is the U.S. government's official web portal to all federal, state and local government web resources and services.